Date,TemperatureHighF,TemperatureAvgF,TemperatureLowF,DewpointHighF,DewpointAvgF,DewpointLowF,HumidityHigh,HumidityAvg,HumidityLow,PressureMaxIn,PressureMinIn,WindSpeedMaxMPH,WindSpeedAvgMPH,GustSpeedMaxMPH,PrecipitationSumIn
2013-3-1,76.0,73.0,71.0,-99.9,-99.9,-99.9,0,0,100,30.20,30.09,16,7,30,0.00
2013-3-2,77.0,73.2,70.0,-99.9,-99.9,-99.9,0,0,100,30.22,30.09,14,7,28,0.00
2013-3-3,77.0,72.9,71.0,-99.9,-99.9,-99.9,0,0,100,30.21,30.12,14,6,22,0.00
2013-3-4,78.0,72.4,70.0,-99.9,-99.9,-99.9,0,0,100,30.21,30.12,13,5,22,0.00
2013-3-5,78.0,73.0,69.0,-99.9,-99.9,-99.9,0,0,100,30.17,30.08,12,-8,20,0.00
2013-3-6,79.0,73.8,71.0,-99.9,-99.9,-99.9,0,0,100,30.16,30.07,12,-9,18,0.00
2013-3-7,79.0,73.0,68.0,-99.9,-99.9,-99.9,0,0,100,30.13,30.00,9,-116,17,0.00
2013-3-8,76.0,72.4,67.0,-99.9,-99.9,-99.9,0,0,100,30.06,29.91,9,-79,13,0.00
2013-3-9,76.0,74.1,71.0,-99.9,-99.9,-99.9,0,0,100,29.96,29.88,15,10,20,0.00
2013-3-10,71.0,68.5,66.0,-99.9,-99.9,-99.9,0,0,100,30.04,29.89,14,-30,19,0.00
2013-3-11,77.0,70.5,64.0,-99.9,-99.9,-99.9,0,0,100,30.08,29.98,9,-115,15,0.00
2013-3-12,76.0,72.2,70.0,-99.9,-99.9,-99.9,0,0,100,30.10,29.99,10,-45,14,0.00
2013-3-13,77.0,71.4,66.0,-99.9,-99.9,-99.9,0,0,100,30.11,30.00,11,-10,16,0.00
2013-3-14,75.0,71.6,69.0,-99.9,-99.9,-99.9,0,0,100,30.11,29.99,11,-67,15,0.00
2013-3-15,74.0,71.2,67.0,-99.9,-99.9,-99.9,0,0,100,30.02,29.92,16,-28,20,0.00
2013-3-16,76.0,70.9,68.0,-99.9,-99.9,-99.9,0,0,100,30.04,29.92,16,0,22,0.00
2013-3-17,75.0,69.2,64.0,-99.9,-99.9,-99.9,0,0,100,30.06,29.95,12,-16,15,0.00
2013-3-18,74.0,69.8,65.0,-99.9,-99.9,-99.9,0,0,100,30.06,29.95,10,-38,14,0.00
2013-3-19,77.0,72.0,66.0,-99.9,-99.9,-99.9,0,0,100,30.04,29.96,8,-60,13,0.00
2013-3-20,78.0,73.7,68.0,-99.9,-99.9,-99.9,0,0,100,30.08,29.97,7,3,11,0.00
2013-3-21,79.0,75.2,71.0,-99.9,-99.9,-99.9,0,0,100,30.08,29.98,7,-88,11,0.00
2013-3-22,77.0,74.6,72.0,-99.9,-99.9,-99.9,0,0,100,30.06,29.95,12,-8,15,0.00
2013-3-23,76.0,72.8,71.0,-99.9,-99.9,-99.9,0,0,100,30.05,29.94,12,-1,25,0.00
2013-3-24,73.0,71.4,70.0,-99.9,-99.9,-99.9,0,0,100,30.07,29.94,10,-45,16,0.00
2013-3-25,79.0,73.6,69.0,-99.9,-99.9,-99.9,0,0,100,30.04,29.94,10,-18,13,0.00
2013-3-26,82.0,74.2,70.0,-99.9,-99.9,-99.9,0,0,100,30.07,29.96,9,-122,15,0.00
2013-3-27,76.0,72.5,71.0,-99.9,-99.9,-99.9,0,0,100,30.06,29.96,9,-45,16,0.00
2013-3-28,78.0,73.7,71.0,-99.9,-99.9,-99.9,0,0,100,30.08,29.97,16,-15,28,0.00
2013-3-29,78.0,73.1,70.0,-99.9,-99.9,-99.9,0,0,100,30.08,30.00,12,-51,19,0.00
2013-3-30,77.0,72.6,70.0,-99.9,-99.9,-99.9,0,0,100,30.08,29.98,9,-45,14,0.00
2013-3-31,75.0,69.6,65.0,-99.9,-99.9,-99.9,0,0,100,30.08,29.98,17,7,22,0.00